www.pogodaiklimat.ru

Погода и климат >> Архив погоды >> Россия >> Якутия >> Мыс Быков


ПОГОДА на Мысе Быков

  • Прогноз погоды на Мысе Быков
  • Монитор погоды на Мысе Быков

АРХИВ ПОГОДЫ на Мысе Быков

Время (UTC), дата Ветер
(напр.,м/с)
 
Видим.   Явления Облачность Т
(С)
Тd
(С)
f
(%)
Тe
(С)
Тes
(С)
Комфортность P
(гПа)
Po
(гПа)
Тmin
(С)
Tmax
(С)
R
(мм)
R24
(мм)
S
(см)
06 19.08 СЗ 2 4000 м дымка 10/10 300 м
[St]
+11.4 +9.0 85 +10 +10 1017.5 1015.5
09 19.08 С 2 20 км 10/10 300 м
[St]
+11.2 +8.6 84 +10 +10 1018.3 1016.3
12 19.08 С 2 20 км 10/10 300 м
[St]
+9.8 +7.7 87 +8 +8 1018.8 1016.8 +11.4
15 19.08 ЮЗ 1 20 км 10/10 300 м
[St]
+9.7 +8.3 91 +9 +9 1019.5 1017.5
18 19.08 ЮЗ 2 20 км 10/10 300 м
[St]
+9.5 +8.1 91 +8 +8 1020.0 1018.0
21 19.08 штиль 0 500 м туман 10/10 300 м
[St]
+9.3 +8.5 95 +8 +8 1020.5 1018.5
00 20.08 Ю 2 500 м туман 10/10 300 м
[St]
+9.1 +8.5 96 +7 +7 1021.2 1019.2 +9.1
03 20.08 ЮВ 2 500 м туман 10/10 300 м
[St]
+9.8 +9.2 96 +8 +8 1021.5 1019.5
06 20.08 СВ 3 1000 м дымка {туман} 10/10 300 м
[St]
+10.3 +9.5 95 +8 +8 1021.9 1019.9
09 20.08 СВ 3 2000 м дымка 10/10 300 м
[St]
+9.6 +8.6 93 +7 +7 1022.7 1020.7
12 20.08 СВ 3 4000 м дымка 10/10 300 м
[St]
+9.3 +8.3 93 +7 +7 1023.4 1021.4 +10.4
15 20.08 С 5 4000 м дымка 10/10 300 м
[St]
+8.8 +7.8 93 +5 +5 1023.6 1021.6
18 20.08 С 5 4000 м дымка 10/10 300 м
[St]
+8.6 +7.3 92 +5 +5 1024.1 1022.1
21 20.08 С 5 4000 м дымка 10/10 300 м
[St]
+8.4 +6.9 90 +5 +5 1024.7 1022.7
00 21.08 СВ 5 4000 м слаб. дождь 10/10 300 м
[Sc]
+9.1 +9.4 100 +5 +5 1024.7 1022.7 +8.3 0.0
03 21.08 СВ 4 4000 м слаб. дождь 10/10 300 м
[Sc]
+9.5 +8.3 92 +7 +7 1025.2 1023.2
06 21.08 СВ 5 4000 м слаб. дождь 10/10 300 м
[Sc]
+9.4 +7.9 90 +6 +6 1025.2 1023.2
09 21.08 СВ 5 4000 м слаб. дождь 10/10 300 м
[Sc]
+9.2 +7.7 90 +6 +6 1025.2 1023.2
12 21.08 В 5 20 км {дождь} 10/10 300 м
[Sc]
+8.9 +7.4 90 +5 +5 1025.4 1023.4 +9.5 0.8
15 21.08 В 5 20 км 10/10 300 м
[Sc]
+9.1 +7.4 89 +6 +6 1024.9 1022.9
18 21.08 В 5 20 км 10/10 300 м
[Sc]
+9.3 +7.4 88 +6 +6 1024.3 1022.3
21 21.08 В 6 20 км 10/10 300 м
[Sc]
+8.8 +7.5 92 +5 +5 1023.8 1021.8
00 22.08 В 6 20 км 10/10 300 м
[Sc]
+8.9 +7.2 89 +5 +5 1023.3 1021.3 +8.8
03 22.08 В 5 20 км 10/10 300 м
[Sc]
+9.6 +7.5 87 +6 +6 1022.3 1020.3
06 22.08 В 5 20 км 10/10 300 м
[Sc]
+9.5 +7.4 87 +6 +6 1021.2 1019.2
09 22.08 В 5 20 км 10/10 300 м
[Sc]
+8.6 +6.9 89 +5 +5 1020.5 1018.5
12 22.08 ЮВ 4 20 км 10/10 300 м
[Sc]
+8.9 +7.4 90 +6 +6 1019.8 1017.8 +9.6
15 22.08 ЮВ 4 20 км 10/10 300 м
[Sc]
+8.5 +7.4 93 +5 +5 1018.8 1016.8
18 22.08 С 4 20 км 10/10 300 м
[St]
+8.2 +6.2 87 +5 +5 1018.2 1016.2
21 22.08 В 5 20 км 10/10 300 м
[Sc]
+8.9 +7.0 88 +5 +5 1017.1 1015.1
00 23.08 ЮВ 4 20 км 10/10 300 м
[Sc]
+9.5 +7.8 89 +7 +7 1015.7 1013.7 +8.2
03 23.08 В 4 20 км 10/10 300 м
[Sc]
+10.0 +8.4 90 +7 +7 1014.3 1012.3
06 23.08 ЮВ 4 20 км 10/10 300 м
[Sc]
+10.2 +8.1 87 +8 +8 1013.4 1011.4
09 23.08 ЮВ 4 20 км 10/10 300 м
[Sc]
+10.3 +8.3 87 +8 +8 1012.5 1010.5
12 23.08 ЮВ 3 20 км 10/10 300 м
[Sc]
+10.2 +7.9 86 +8 +8 1011.8 1009.8 +10.3
15 23.08 Ю 2 20 км 10/10 300 м
[Sc]
+10.0 +8.6 91 +8 +8 1011.0 1009.0
18 23.08 Ю 2 20 км 10/10 300 м
[Sc]
+9.8 +8.2 90 +8 +8 1010.5 1008.5
21 23.08 ЮВ 4 4000 м слаб. морось 10/10 300 м
[Sc]
+10.4 +9.6 95 +8 +8 1009.0 1007.0
00 24.08 ЮВ 6 4000 м слаб. морось 10/10 300 м
[St]
+10.6 +8.8 89 +7 +7 1008.3 1006.3 +9.8 0.0
03 24.08 ЮВ 5 4000 м дождь {морось} 10/10 300 м
[Sc]
+10.6 +9.4 92 +8 +8 1007.4 1005.4
06 24.08 ЮВ 5 20 км {дождь, морось} 10/10 300 м
[Sc]
+11.0 +9.6 91 +8 +8 1006.7 1004.7
09 24.08 Ю 3 20 км 10/10 300 м
[Sc]
+10.8 +9.4 91 +9 +9 1006.5 1004.5
12 24.08 СЗ 4 4000 м дымка 10/10 300 м
[St]
+10.9 +10.1 95 +8 +8 1006.5 1004.5 +11.2 3
15 24.08 ЮЗ 3 20 км 10/10 300 м
[St]
+10.6 +9.0 90 +8 +8 1006.5 1004.5
18 24.08 ЮЗ 2 20 км 10/10 300 м
[St]
+10.4 +8.8 90 +9 +9 1006.2 1004.2
21 24.08 ЮЗ 5 20 км 10/8 300 м
[Sc Ac und]
+11.4 +9.0 85 +9 +9 1005.5 1003.5
00 25.08 Ю 2 20 км 10/10 300 м
[Sc]
+11.5 +9.7 89 +10 +10 1005.5 1003.5 +10.4
03 25.08 СЗ 3 4000 м слаб. дождь 10/10 300 м
[Sc]
+12.1 +9.8 86 +10 +10 1005.5 1003.5
06 25.08 СЗ 3 20 км {дождь} 9/5 600 м
[Sc Ac As]
+11.8 +9.6 86 +10 +11 1005.9 1003.9
09 25.08 СЗ 5 20 км 10/10 600 м
[Sc]
+11.2 +8.6 84 +8 +8 1006.4 1004.4
12 25.08 З 4 20 км 10/10 600 м
[Sc]
+11.1 +8.3 83 +9 +9 1007.4 1005.4 +12.5 0.4
15 25.08 СЗ 6 20 км 10/10 600 м
[Sc]
+10.6 +7.9 83 +7 +7 1007.8 1005.8
18 25.08 СЗ 6 4000 м слаб. дождь 10/10 600 м
[Sc]
+10.2 +7.3 82 +7 +7 1007.5 1005.5
21 25.08 СЗ 5 20 км {дождь} 10/10 600 м
[St]
+9.0 +8.0 93 +5 +5 1009.5 1007.5
00 26.08 СЗ 5 20 км {дождь} 4/3 600 м
[Sc Ac trans]
+9.0 +6.4 84 +6 +6 1010.8 1008.8 +10.6 0.0
03 26.08 СЗ 5 20 км 10/10 600 м
[Sc]
+9.9 +6.9 82 +7 +7 1011.7 1009.7

 

Местоположение метеостанции Мыс Быков (Якутия, Россия): широта 72.00 долгота 129.10 высота над уровнем моря 16 м.

В архиве по умолчанию представлена погода на Мысе Быков за последнюю неделю. Архивные данные за месяц целиком и за предыдущие месяцы, начиная с января 2011 года, Вы можете получить, выбрав интересующий диапазон дат из раскрывающегося списка и нажав кнопку "Ввод!".


*Определитесь, кто Вы:
робот инопланетянин человек

Внимание! Время в таблицах - всемирное. Для получения местного времени необходимо прибавить поправку, которая равна 9 ч.

Смотрите также архив погоды в соседних городах и на ближайших метеорологических станциях:

Погода в Тикси (Якутия, Россия) (47 км)
Погода на Столб Острове (Якутия, Россия) (105 км)
Погода в Кюсюре (Якутия, Россия) (159 км)
Погода в Тюмяти (Якутия, Россия) (193 км)
Погода в Юбилейной (Якутия, Россия) (287 км)
Погода в Усть-Куйге (Якутия, Россия) (324 км)
Погода на Усть-Оленеке (Якутия, Россия) (330 км)
Погода на Мысе Кигилях (Якутия, Россия) (384 км)
Погода в Джарджане (Якутия, Россия) (410 км)
Погода на Проливе Санникова (Якутия, Россия) (430 км)

Пояснения к столбцам:

Ветер - указаны скорость ветра в м/с - средняя за 10 мин, порывы в срок и между сроками (в фигурных скобках) и направление, откуда дует ветер: С - северный, СВ - северо-восточный, В - восточный, ЮВ - юго-восточный, Ю - южный, ЮЗ - юго-западный, З - западный, СЗ - северо-западный.
Видимость - горизонтальная дальность видимости в метрах или километрах. При видимости от 1 до 10 км при отсутствии осадков обычно наблюдается дымка, при ухудшении видимости до 1 км и менее - туман. В сухую погоду видимость может ухудшаться дымом, пылью или мглою.
Явления - указаны атмосферные явления, наблюдавшиеся в срок или в последний час перед сроком; фигурными скобками обозначены явления, наблюдавшиеся между сроками (за 1-3 часа до срока); квадратными скобками обозначены град или гололедные отложения с указанием их диаметра в мм.
Облачность - указаны через наклонную черту общая и нижняя облачность в баллах и высота нижней границы облаков в метрах; квадратными скобками обозначены формы облаков: Ci - перистые, Cs - перисто-слоистые, Cc - перисто-кучевые, Ac - высококучевые, As - высокослоистые, Sc - слоисто-кучевые, Ns - слоисто-дождевые, Cu - кучевые, Cb - кучево-дождевые. Подробнее классификацию облаков см. в Атласе облаков (PDF).
T - Температура воздуха - температура, измеренная на высоте 2 м над землей.
Td - Температура точки росы - температура, при понижении до которой содержащийся в воздухе водяной пар достигнет насыщения.
f - Относительная влажность воздуха - влажноcть воздуха, измеренная на высоте 2 м над землей.
Te - Эффективная температура - температура, которую ощущает одетый по сезону человек в тени. Характеристика душности погоды. При расчете учитывается влияние влажности воздуха и скорости ветра на теплоощущения человека.
Tes - Эффективная температура на солнце - температура, которую ощущает человек, с поправкой на солнечный нагрев. Характеристика знойности погоды. Зависит от высоты солнца над горизонтом, облачности и скорости ветра. Ночью, в пасмурную погоду, а также при ветре 12 м/с и более поправка равна нулю.
P - Атмосферное давление - приведенное к уровню моря атмосферное давление.
Po - Атмосферное давление - измеренное на уровне метеостанции атмосферное давление.
Tmin - Минимальная температура - минимум температуры воздуха на высоте 2 м над землей.
Tmax - Максимальная температура - максимум температуры воздуха на высоте 2 м над землей.
R - Количество осадков - Количество выпавших осадков за период времени, мм. При наведении курсора мыши на число - период времени, за который выпало указанное количество осадков.
R24 - Количество осадков - Количество выпавших осадков за 24 часа, мм.
S - Снежный покров - Высота снежного покрова, см. При наведении курсора мыши на число - состояние снежного покрова и степень покрытия местности в баллах.